Weather Roundup
Issued by NWS Chicago, IL

Home | Current Version | Previous Version | Text Only | Print | Product List | Glossary Off
Versions: 1 2 3 4 5 6 7 8 9 10 11 12 13 14 15 16 17 18 19 20 21 22 23 24 25 26 27 28 29 30 31 32 33 34 35 36 37 38 39 40 41 42 43 44 45 46 47 48 49 50

000
NZUS59 KLOT 250103
HRRLOT

CHICAGO AREA WEATHER ROUNDUP
NATIONAL WEATHER SERVICE CHICAGO/ROMEOVILLE IL
800 PM CDT WED MAY 24 2017

NOTE: "FAIR" INDICATES FEW OR NO CLOUDS BELOW 12,000 FEET WITH NO
SIGNIFICANT WEATHER AND/OR OBSTRUCTIONS TO VISIBILITY.

* THESE STATIONS ARE NOT UNDER NWS QUALITY CONTROL. THEY ALSO MAY NOT
  REPORT WEATHER SUCH AS PRECIPITATION OR FOG.

ILZ005-006-012>014-019>023-250200-
NORTHEAST ILLINOIS

CITY           SKY/WX    TMP DP  RH WIND       PRES   REMARKS
OHARE          CLOUDY    59  50  72 N16G22    29.56R
MIDWAY         CLOUDY    54  50  86 N16       29.56R
AURORA         CLOUDY    60  53  77 N13       29.57R
LANSING*       LGT RAIN  50  50 100 N10G17    29.55S
JOLIET*        RAIN      60  54  80 NE6       29.56R
WAUKEGAN       CLOUDY    56  50  80 N13G26    29.56S
DUPAGE AIRPORT MOCLDY    59  53  80 N14       29.55S
WHEELING       CLOUDY    58  52  80 N14G23    29.57R
MORRIS*        CLOUDY    60  54  78 N5        29.54S
LEWIS AIRPORT* RAIN      56  55  94 NE8       29.56R
NORTHERLY ISL    N/A     49  47  93 N18         N/A
$$

WIZ051-052-058>065-066-070>072-250200-
SOUTHEAST WISCONSIN

CITY           SKY/WX    TMP DP  RH WIND       PRES   REMARKS
MILWAUKEE      MOCLDY    54  50  86 N17       29.61R
KENOSHA*       MOCLDY    57  49  74 N17G25    29.58F
RACINE*        CLOUDY    51  47  86 N22G31    29.61S
WAUKESHA       CLOUDY    55  48  76 N9        29.63R
$$

INZ001>003-010>013-019-020-250200-
NORTHWEST INDIANA

CITY           SKY/WX    TMP DP  RH WIND       PRES   REMARKS
GARY*          LGT RAIN  50  48  93 NW12      29.55S
MICHIGAN CITY* NOT AVBL
RENSSELAER*    NOT AVBL
VALPARAISO     LGT RAIN  52  50  93 NW7       29.52F FOG
$$

LMZ740>746-250200-
SOUTHERN LAKE MICHIGAN

STATION/POSITION TIME  SKY/WX   TEMP WIND        PRES    VSBY
                                AIR  DIR/SP/G
                 (UTC)          (F)  (DEG/KT/KT) (MB)    (MI)
HARRISON CRIB    0040            49  350/ 23/ 24   N/A
BURNHAM HARBOR   0100            49  340/ 13/ 20   N/A
CALUMET HARBOR   0030            49  330/ 11/ 18 1000.6R
BURNS HARBOR     0040            49  320/  8/ 10 1000.7S
MICHIGAN CITY    0040            50  280/  5/  6   N/A
$$

ABBREVIATIONS USED IN REMARKS
   TC - TEMPERATURE IN CELSIUS
  WCI - WIND CHILL INDEX
   HX - HEAT INDEX
  VSB - VISIBILITY
$$




USA.gov is the U.S. government's official web portal to all federal, state and local government web resources and services.